Regional Weather Roundup
Issued by NWS Wakefield, VA

Home | Current Version | Previous Version | Text Only | Print | Product List | Glossary Off
Versions: 1 2 3 4 5 6 7 8 9 10 11 12 13 14 15 16 17 18 19 20 21 22 23 24 25 26 27 28 29 30 31 32 33 34 35 36 37 38 39 40 41 42 43 44

000
ASUS41 KAKQ 270610
RWRAKQ

REGIONAL WEATHER ROUNDUP
NATIONAL WEATHER SERVICE WAKEFIELD VA
100 AM EST SAT DEC 27 2014

Note: "fair" indicates few or no clouds below 12,000 feet with no
significant weather and/or obstructions to visibility. * = Denotes
station may not report precipitation (e.g., rain,snow,etc.),
thunder or fog.

VAZ042-051-052>054-056-270700-
NORTHERN VIRGINIA

CITY           SKY/WX    TMP DP  RH WIND       PRES   REMARKS
WASH NATIONAL  PTCLDY    39  32  76 CALM      30.26F
DULLES         MOCLDY    29  27  92 CALM      30.24F
FORT BELVOIR   NOT AVBL
QUANTICO       PTCLDY    33  30  88 NW3       30.26F
FREDERICKSBRG* PTCLDY    32  32 100 CALM      30.25S
STAFFORD*      PTCLDY    29  29 100 CALM      30.29F
WARRENTON      PTCLDY    29  29 100 CALM      30.25R
CULPEPER*      PTCLDY    30  28  93 CALM      30.27R
MANASSAS*      PTCLDY    28  28 100 CALM      30.26R
LEESBURG*      PTCLDY    32  32 100 W3        30.26R
WINCHESTER     MOCLDY    37  28  70 SW5       30.22S
FRONT ROYAL*   MOCLDY    32  30  93 S6        30.23R
LURAY*         MOCLDY    34  32  93 SE3       30.24S
$$

VAZ048-049-060>072-079>083-270700-
CENTRAL AND SOUTH CENTRAL VIRGINIA

CITY           SKY/WX    TMP DP  RH WIND       PRES   REMARKS
RICHMOND       MOCLDY    33  29  85 CALM      30.27S
CHESTERFIELD*  MOCLDY    32  19  59 CALM      30.27F
PETERSBURG*    MOCLDY    33  32  98 CALM      30.28S
HANOVER        PTCLDY    31  29  92 CALM      30.28S
TAPPAHANNOCK*  PTCLDY    31  28  87 S3        30.27F
QUINTON*       PTCLDY    32  30  93 CALM      30.28S
CHARLOTTSVILLE MOCLDY    35  30  82 CALM      30.24S
GORDONSVILLE*  MOCLDY    30  29  95 CALM      30.24R
ORANGE*        PTCLDY    32  30  93 CALM      30.26R
LOUISA*        PTCLDY    36  32  87 CALM      30.24R
BUMPASS*       MOCLDY    32  30  92 CALM      30.25S
FARMVILLE*     MOCLDY    37  37 100 CALM      30.25F
CREWE*         MOCLDY    37  34  91 CALM      30.26S
FORT PICKETT*  MOCLDY    40  35  81 SW6       30.27S
CHASE CITY*    MOCLDY    37  37 100 CALM      30.28R
CLARKSVILLE*   MOCLDY    37  34  87 CALM      30.27S
SOUTH HILL*    MOCLDY    35  34  96 SW5       30.34S
LAWRENCEVILLE* MOCLDY    37  35  92 CALM      30.27F
EMPORIA*       MOCLDY    34  34 100 CALM      30.30S
$$

VAZ088>098-270700-
SOUTHEAST VIRGINIA

CITY           SKY/WX    TMP DP  RH WIND       PRES   REMARKS
NORFOLK          N/A     36  35  96 SW3       30.27F VSB 1/4
VIRGINIA BEACH PTCLDY    36  34  92 CALM      30.28F
NORFOLK NAVAL  PTCLDY    42  37  82 CALM      30.29F
WEST POINT*    CLEAR     32  29  90 CALM      30.29F
SALUDA*          N/A     35  35  97 S7        30.27S VSB 1/2
NEWPORT NEWS   FOG       36  32  85 CALM      30.28S VSB 1/4
LANGLEY AFB    PTCLDY    37  36  93 CALM      30.28F FOG
FORT EUSTIS    NOT AVBL
WILLIAMSBURG*  CLOUDY    37  36  93 CALM      30.29S VSB 1/4
HR EXEC AP*    PTCLDY    30  28  93 CALM      30.30F
FRANKLIN*      MOCLDY    36  36 100 CALM      30.28F
WAKEFIELD      PTCLDY    34  31  88 CALM      30.28F
$$

VAZ020-022-025-037-045-270700-
WEST CENTRAL AND SOUTHWEST VIRGINIA

CITY           SKY/WX    TMP DP  RH WIND       PRES   REMARKS
STAUNTON*      MOCLDY    30  26  83 E3        30.25F
WAYNESBORO*    MOCLDY    32  24  70 CALM      30.22F
HOT SPRINGS VA PTCLDY    42   7  23 W13       30.19F
LYNCHBURG      CLOUDY    39  32  76 SW3       30.26F
DANVILLE       CLEAR     36  30  79 W3        30.28F
SOUTH BOSTON*  MOCLDY    32  31  96 CALM      30.28F
MARTINSVILLE   PTCLDY    30  30 100 CALM      30.29F
ROANOKE        MOCLDY    38  29  70 CALM      30.26F
BLACKSBURG     PTCLDY    32  27  83 CALM      30.26F
DUBLIN*        PTCLDY    37  30  77 CALM      30.24F
MARION*        MOCLDY    37  26  66 CALM      30.25F
HILLSVILLE*    FAIR      40  28  63 S7        30.24F
RICHLANDS*     CLOUDY    47  10  22 SW5       30.21R
WISE*          CLOUDY    45  21  39 W3        30.22F
ABINGDON*      CLOUDY    47  23  38 NE8       30.22S
$$

MDZ021>025-VAZ099-100-270700-
SOUTHERN MARYLAND AND THE DELMARVA PENINSULA

CITY           SKY/WX    TMP DP  RH WIND       PRES   REMARKS
PATUXENT RIVER CLEAR     30  27  88 CALM      30.25F
BAY BRIDGE APT   N/A     37  34  87 S5        30.25F
LEONARDTOWN    CLEAR     36  32  87 CALM      30.26F
DOVER          NOT AVBL
GEORGETOWN     CLEAR     34  29  82 SW7       30.25F
EASTON         CLEAR     37  35  93 CALM      30.29S
CAMBRIDGE      CLEAR     32  32 100 CALM      30.26S
SALISBURY      CLEAR     32  27  81 CALM      30.26F
OCEAN CITY     CLEAR     29  28  96 SW5       30.27F
WALLOPS ISLAND CLEAR     37  37 100 CALM      30.28F
ACCOMACK*      CLEAR     34  32  93 S5        30.27F FOG
$$

NCZ012>017-030>032-270700-
NORTH CENTRAL AND EASTERN NORTH CAROLINA

CITY           SKY/WX    TMP DP  RH WIND       PRES   REMARKS
ROANOKE RAPIDS MOCLDY    36  34  93 SW3       30.29S
RALEIGH        MOCLDY    38  33  82 CALM      30.30F
ELIZABETH CITY CLEAR     42  36  79 CALM      30.29F
AHOSKIE*       PTCLDY    35  33  95 CALM      30.30S
EDENTON*         N/A     36  34  95 CALM      30.30F FOG
CURRITUCK*     CLEAR     38  37  94 CALM      30.30S
KILL DEVIL HLS CLEAR     46  45  97 CALM      30.28F
MANTEO         FOG       37  37 100 CALM      30.30S VSB 1/2
CAPE HATTERAS  CLEAR     37  37 100 NW5       30.30F
TARBORO*       MOCLDY    37  36  96 CALM      30.31S
GOLDSBORO      MOCLDY    36  36 100 CALM      30.30S
WASHINGTON     PTCLDY    37  36  94 CALM      30.31S
GREENVILLE     MOCLDY    37  37 100 CALM      30.32R
NEW BERN         N/A     36  34  92 CALM      30.32S VSB 1/4
WILMINGTON     CLEAR     38  36  92 CALM      30.32R
$$

VAZ048-270700-
ELSEWHERE

CITY           SKY/WX    TMP DP  RH WIND       PRES   REMARKS
HARRISBURG PA  MOCLDY    30  27  88 CALM      30.21F
BALTIMORE      PTCLDY    28  26  92 W3        30.24F
ANNAPOLIS      CLEAR     35  32  88 CALM      30.25F
ANDREWS AFB    NOT AVBL
PHILADELPHIA   PTCLDY    36  31  82 W5        30.24F
HENDERSON NC   PTCLDY    36  33  87 SW7       30.29S
GREENSBORO     MOCLDY    41  32  70 SW6       30.28F
ROCKY MOUNT    MOCLDY    37  35  92 CALM      30.31R
$$

VAZ100-270700-
MARINE

STATION/POSITION TIME  TEMP    WIND        PRES    WAVE   SWELL
                       AIR SEA DIR/SP/G            HT/PER HT/PER
                 (UTC) (F)     (DEG/KT/KT) (MB)    (FT/S) (FT/S)
CAPE MAY NJ      0600   43 46  240/  8/  9 1023.9F
LEWES DE         0600   39 44  220/  5/  7 1024.0F
15NM E FENWICK I 0600   45 45              1024.2F   2/12
OCEAN-CITY-INLET 0600   40 45  260/  5/  6 1024.6R
WACHAPREAGUE VA  0600   37 48   CALM  /  1 1025.3S
THOMAS POINT MD  0600   41 42  210/  5/  5 1025.5F
GOOSES REEF MD   0600   42     VRB  4/  6  1023.4F   0
COVE POINT MD    0600   40     190/  5/  6 1024.5F
SOLOMONS ISLAND  0600      43                N/A
BISHOPS HEAD MD  0600   42 45  200/  7/  9 1024.3F
PINEY POINT MD   0600          180/  5/  5   N/A
POTOMAC MD       0600   43 43  210/  4/  6 1023.9S   1
CAMBRIDGE MD     0600   36 43  200/  3/  4 1024.6R
LEWISETTA VA     0600   39 44  230/  4/  5 1024.6F
RAPPAHANNOCK LGT 0600          180/  6/  7 1025.8S
STINGRAY PT      0600   44 44  180/  6/  8 1025.2F   0
YORK RVR RNG VA  0600   44     200/  5/  5 1024.4F
YORKTOWN VA      0600   40 46  190/  1/  2 1025.0R
JAMESTOWN VA     0600   38 45   70/  2/  2   N/A     0
DOMINION TERM VA 0600   45     200/  4/  5 1025.1F
KIPTOPEKE VA     0600      50  140/  5/  5   N/A
CHES BAY BRIDGE  0600   45 46  160/  6/  6 1024.7F
CAPE HENRY VA    0600   45     190/  7/  8 1023.9F
CHESAPEAKE LGHT  0500   48     170/ 10/ 10 1026.3F
WILLOUBY STN VA  0600   44     180/  5/  5 1025.4F
S CRANEY ISL VA  0600          180/  4/  5 1025.0F
CAPE HENRY BUOY  0500      48                N/A     2/13   2/13
1ST LANDING BUOY 0600   45 45  190/  6/  8 1024.6F   1
CAPE CHARLES BUO 0600      48                N/A     1/13   2/13
64NM E OF VA BCH 0600   51 52  200/  6/  8 1024.9F   2/ 8   2/ 8
DUCK PIER NC     0600   48 51  220/  7/  8 1025.2R
44100 DUCK FRF   0600      50                N/A     2/13   2/13
44056 DUCK FRF   0600      50                N/A     2/13   2/13
OREGON INLET NC  0600   46 54  150/  3/  4 1025.9F
HATTERAS NC      0600   49 55  330/  1/  1 1026.2S
DIAMOND SHLS NC  0600   55                 1025.8F   3/ 9
CAPE LOOKOUT NC  0500   53      30/  1/  2 1026.3F
$$



USA.gov is the U.S. government's official web portal to all federal, state and local government web resources and services.